Weather History for Freeport, IL

Change the Weather History Date:

Tuesday, September 25, 2012

  Actual Average Record
Temperature  
Mean Temperature 63 °F -  
Max Temperature 82 °F 69 °F 89 °F (1984)
Min Temperature 44 °F 44 °F 30 °F (1976)
Degree Days  
Heating Degree Days 2    
Growing Degree Days 13 (Base 50)    
Moisture  
Dew Point 47 °F    
Average Humidity 54    
Maximum Humidity 81    
Minimum Humidity 23    
Precipitation  
Precipitation 0.00 in - - ()
Sea Level Pressure  
Sea Level Pressure 29.86 in    
Wind  
Wind Speed 6 mph (WSW)    
Max Wind Speed 14 mph    
Max Gust Speed 12 mph    
Visibility 10 miles    
Events      
Averages and records for this station are not official NWS values.
T = Trace of Precipitation, MM = Missing Value Source: NWS Daily Summary

Daily Weather History Graph

Daily Weather History Graph

Search for Another Location

Airport:

Trip Planner

Search our weather history database for the weather conditions in past years. The results will help you decide how hot, cold, wet, or windy it might be!

Date:

Astronomy

Sep. 25, 2012 Rise Set
Actual Time 6:49 AM CDT 6:49 PM CDT
Civil Twilight 6:21 AM CDT 7:17 PM CDT
Nautical Twilight 5:48 AM CDT 7:49 PM CDT
Astronomical Twilight 5:15 AM CDT 8:23 PM CDT
Moon 4:18 PM CDT (9/25) 2:06 AM CDT (9/25)
Length of Visible Light 12h 55m
Length of Day
11h 59m
Waxing Gibbous, 80% of the Moon is Illuminated
Sep 25
Waxing Gibbous
Sep 29
Full
Oct 8
Last Quarter
Oct 15
New
Oct 21
First Quarter

Hourly Weather History & Observations

Time (CDT) Temp. Windchill Dew Point Humidity Pressure Visibility Wind Dir Wind Speed Gust Speed Precip Events Conditions
5:42 AM 44.6 °F 40.7 °F 39.2 °F 81% 29.87 in 10.0 mi South 6.9 mph - N/A   Clear
6:00 AM 51.8 °F - 44.6 °F 76% 29.87 in 10.0 mi South 8.1 mph - N/A   Clear
6:37 AM 51.8 °F - 44.6 °F 76% 29.89 in 10.0 mi South 10.4 mph - N/A   Clear
6:57 AM 53.6 °F - 44.6 °F 72% 29.89 in 10.0 mi South 13.8 mph - N/A   Clear
7:37 AM 53.6 °F - 46.4 °F 77% 29.89 in 10.0 mi SSW 9.2 mph - N/A   Clear
7:57 AM 53.6 °F - 46.4 °F 77% 29.89 in 10.0 mi SSW 9.2 mph - N/A   Clear
8:17 AM 55.4 °F - 48.2 °F 77% 29.90 in 10.0 mi SSW 9.2 mph - N/A   Clear
8:37 AM 59.0 °F - 50.0 °F 72% 29.89 in 10.0 mi SW 6.9 mph - N/A   Clear
8:57 AM 60.8 °F - 50.0 °F 68% 29.89 in 10.0 mi SW 9.2 mph - N/A   Clear
9:17 AM 62.6 °F - 50.0 °F 63% 29.89 in 10.0 mi SW 6.9 mph - N/A   Clear
9:41 AM 64.4 °F - 50.0 °F 59% 29.89 in 10.0 mi SW 6.9 mph - N/A   Clear
10:01 AM 66.2 °F - 51.8 °F 60% 29.88 in 10.0 mi West 8.1 mph - N/A   Clear
11:02 AM 73.4 °F - 53.6 °F 50% 29.87 in 10.0 mi SW 8.1 mph - N/A   Clear
11:15 AM 74.3 °F - 51.3 °F 44% 29.87 in 10.0 mi SW 8.1 mph - N/A   Clear
11:20 AM 73.4 °F - 50.0 °F 44% 29.87 in 10.0 mi SW 6.9 mph - N/A   Clear
11:35 AM 74.3 °F - 47.8 °F 39% 29.86 in 10.0 mi WSW 5.8 mph - N/A   Clear
11:55 AM 75.2 °F - 47.5 °F 37% 29.85 in 10.0 mi WSW 5.8 mph - N/A   Clear
12:15 PM 76.8 °F - 46.8 °F 34% 29.85 in 10.0 mi WSW 6.9 mph - N/A   Clear
12:35 PM 79.2 °F - 47.5 °F 33% 29.86 in 10.0 mi SSW 8.1 mph - N/A   Clear
12:55 PM 79.3 °F - 46.0 °F 31% 29.85 in 10.0 mi WSW 6.9 mph - N/A   Clear
2:35 PM 81.5 °F - 47.1 °F 30% 29.82 in 10.0 mi West 5.8 mph 11.5 mph N/A   Clear
2:55 PM 81.0 °F - 44.1 °F 27% 29.82 in 10.0 mi Calm Calm - N/A   Clear
3:15 PM 81.9 °F - 43.5 °F 26% 29.82 in 10.0 mi West 5.8 mph - N/A   Clear
3:37 PM 80.6 °F - 42.8 °F 26% 29.82 in 10.0 mi West 8.1 mph - N/A   Clear
4:17 PM 82.4 °F - 41.0 °F 23% 29.82 in 10.0 mi WNW 4.6 mph - N/A   Clear
4:55 PM 80.2 °F - 40.5 °F 24% 29.83 in 10.0 mi West 5.8 mph - N/A   Clear
5:15 PM 79.5 °F - 38.8 °F 23% 29.83 in 10.0 mi West 5.8 mph - N/A   Clear
5:35 PM 79.3 °F - 39.9 °F 24% 29.83 in 10.0 mi West 5.8 mph - N/A   Clear
5:55 PM 79.3 °F - 40.6 °F 25% 29.84 in 10.0 mi West 4.6 mph - N/A   Clear
6:15 PM 79.3 °F - 43.0 °F 27% 29.84 in 10.0 mi WSW 3.5 mph - N/A   Clear
6:35 PM 75.2 °F - 41.9 °F 30% 29.84 in 10.0 mi WSW 3.5 mph - N/A   Clear
6:55 PM 71.2 °F - 46.6 °F 41% 29.84 in 10.0 mi Calm Calm - N/A   Clear
7:15 PM 71.8 °F - 45.3 °F 39% 29.85 in 10.0 mi SSW 3.5 mph - N/A   Clear
7:35 PM 62.6 °F - 48.2 °F 59% 29.85 in 10.0 mi Calm Calm - N/A   Clear
7:55 PM 62.4 °F - 49.8 °F 63% 29.85 in 10.0 mi SW 4.6 mph - N/A   Clear
8:15 PM 61.5 °F - 49.3 °F 64% 29.85 in 10.0 mi Calm Calm - N/A   Clear
8:35 PM 60.1 °F - 49.8 °F 69% 29.85 in 10.0 mi Calm Calm - N/A   Clear
8:55 PM 59.0 °F - 49.6 °F 71% 29.85 in 10.0 mi WSW 3.5 mph - N/A   Clear
9:15 PM 59.0 °F - 49.1 °F 70% 29.85 in 10.0 mi WSW 3.5 mph - N/A   Clear
9:35 PM 58.6 °F - 50.4 °F 74% 29.86 in 10.0 mi Calm Calm - N/A   Clear
9:55 PM 54.0 °F - 47.8 °F 80% 29.87 in 10.0 mi Calm Calm - N/A   Clear
10:15 PM 55.6 °F - 48.0 °F 76% 29.89 in 10.0 mi Calm Calm - N/A   Clear
10:35 PM 54.0 °F - 47.1 °F 78% 29.90 in 10.0 mi NNE 3.5 mph - N/A   Clear
10:55 PM 55.2 °F - 47.5 °F 75% 29.90 in 10.0 mi North 4.6 mph - N/A   Clear
11:15 PM 54.3 °F - 46.8 °F 76% 29.91 in 10.0 mi Calm Calm - N/A   Clear
11:35 PM 54.0 °F - 46.8 °F 77% 29.91 in 10.0 mi North 4.6 mph - N/A   Clear
11:55 PM 54.0 °F - 47.8 °F 80% 29.92 in 10.0 mi Calm Calm - N/A   Clear